Mountain Home, Arkansas, United States (72653)
Lat: 36.34N, Lon: 92.39W
Wx Zone: ARZ005
Local Info
Past Weather Observations for Monday, April 13, 2015

NOTE: This archive is for the closest National Weather Service station to Mountain Home. Information may differ from the station used for current weather conditions.

Click here for Long-term Archive

Time Weather Temperature Dewpoint Humidity Pressure Winds Precip Visibility
23:53
Overcast
54°F / 12°C 50°F / 10°C 88% 30.12 in
(1020 mb)
Calm - 10SM
22:53
Overcast
54°F / 12°C 48°F / 9°C 82% 30.12 in
(1020 mb)
NE 6.9 mph
(NE 11 kph)
0.00 in
(0.00 mm)
10SM
21:53
Overcast
54°F / 12°C 52°F / 11°C 94% 30.09 in
(1019 mb)
N 4.6 mph
(N 7 kph)
0.02 in
(0.51 mm)
10SM
20:53
Overcast
Light Rain
55°F / 13°C 54°F / 12°C 94% 30.09 in
(1019 mb)
ENE 16.1 mph
(ENE 26 kph)
0.03 in
(0.76 mm)
9SM
19:53
Overcast
Rain
57°F / 14°C 57°F / 14°C 100% 30.09 in
(1019 mb)
Calm 0.10 in
(2.54 mm)
5SM
18:53
Overcast
Light Rain
57°F / 14°C 57°F / 14°C 100% 30.06 in
(1018 mb)
Calm 0.08 in
(2.03 mm)
5SM
18:45
Overcast
Rain
57°F / 14°C 57°F / 14°C 100% 30.06 in
(1018 mb)
Variable 3.5 mph
(Variable 6 kph)
0.07 in
(1.78 mm)
4SM
18:25
Overcast
Light Rain
59°F / 15°C 59°F / 15°C 100% 30.06 in
(1018 mb)
N 5.8 mph
(N 9 kph)
0.03 in
(0.76 mm)
6SM
18:14
Overcast
Light Rain
59°F / 15°C 59°F / 15°C 100% 30.06 in
(1018 mb)
Variable 3.5 mph
(Variable 6 kph)
0.02 in
(0.51 mm)
5SM
17:53
Overcast
Light Rain
59°F / 15°C 59°F / 15°C 100% 30.06 in
(1018 mb)
Calm 0.09 in
(2.29 mm)
4SM
16:53
Overcast
Rain
59°F / 15°C 59°F / 15°C 100% 30.04 in
(1017 mb)
Variable 6.9 mph
(Variable 11 kph)
0.13 in
(3.30 mm)
4SM
16:37
Overcast
Rain
59°F / 15°C 59°F / 15°C 100% 30.06 in
(1018 mb)
ENE 10.4 mph
(ENE 17 kph)
0.11 in
(2.79 mm)
3SM
16:17
Overcast
Rain
59°F / 15°C 59°F / 15°C 100% 30.04 in
(1017 mb)
Variable 5.8 mph
(Variable 9 kph)
0.06 in
(1.52 mm)
2 1/2SM
16:04
Overcast
Rain
59°F / 15°C 59°F / 15°C 100% 30.04 in
(1017 mb)
Calm 0.03 in
(0.76 mm)
2 1/2SM
16:00
Overcast
Rain
59°F / 15°C 59°F / 15°C 100% 30.06 in
(1018 mb)
Calm 0.01 in
(0.25 mm)
3SM
15:53
Overcast
Rain
59°F / 15°C 59°F / 15°C 100% 30.06 in
(1018 mb)
Variable 3.5 mph
(Variable 6 kph)
0.15 in
(3.81 mm)
2 1/2SM
15:29
Overcast
Rain
59°F / 15°C 59°F / 15°C 100% 30.06 in
(1018 mb)
NE 4.6 mph
(NE 7 kph)
0.08 in
(2.03 mm)
2 1/2SM
15:03
Overcast
Light Rain
59°F / 15°C 59°F / 15°C 100% 30.06 in
(1018 mb)
Variable 6.9 mph
(Variable 11 kph)
0.01 in
(0.25 mm)
4SM
14:53
Overcast
Rain
59°F / 15°C 59°F / 15°C 100% 30.06 in
(1018 mb)
Variable 6.9 mph
(Variable 11 kph)
0.16 in
(4.06 mm)
2 1/2SM
14:26
Overcast
Rain
59°F / 15°C 57°F / 14°C 94% 30.06 in
(1018 mb)
NE 4.6 mph
(NE 7 kph)
0.09 in
(2.29 mm)
2 1/2SM
13:53
Overcast
Light Rain
61°F / 16°C 57°F / 14°C 88% 30.06 in
(1018 mb)
Variable 4.6 mph
(Variable 7 kph)
0.05 in
(1.27 mm)
5SM
12:53
Overcast
Light Rain
59°F / 15°C 57°F / 14°C 94% 30.06 in
(1018 mb)
NW 4.6 mph
(NW 7 kph)
0.02 in
(0.51 mm)
4SM
11:53
Overcast
Rain
59°F / 15°C 57°F / 14°C 94% 30.04 in
(1017 mb)
E 8.1 mph
(E 13 kph)
0.07 in
(1.78 mm)
4SM
10:53
Overcast
Light Rain
61°F / 16°C 57°F / 14°C 88% 30.06 in
(1018 mb)
E 6.9 mph
(E 11 kph)
0.24 in
(6.10 mm)
8SM
09:53
Overcast
Light Rain
61°F / 16°C 55°F / 13°C 83% 30.04 in
(1017 mb)
ENE 9.2 mph
(ENE 15 kph)
- 10SM
08:53
Overcast
Light Rain
61°F / 16°C 55°F / 13°C 83% 30.04 in
(1017 mb)
NE 10.4 mph
(NE 17 kph)
- 7SM
08:36
Overcast
Light Rain
61°F / 16°C 57°F / 14°C 88% 30.04 in
(1017 mb)
NE 11.5 mph
(NE 19 kph)
- 4SM
07:53
Overcast
Hazy
66°F / 19°C 61°F / 16°C 83% 30.01 in
(1016 mb)
NNE 8.1 mph
(NNE 13 kph)
- 6SM
06:53
Overcast
66°F / 19°C 63°F / 17°C 88% 30.01 in
(1016 mb)
SSE 3.5 mph
(SSE 6 kph)
- 7SM
05:53
Overcast
64°F / 18°C 63°F / 17°C 94% 29.98 in
(1015 mb)
SSE 3.5 mph
(SSE 6 kph)
- 9SM
05:18
Overcast
64°F / 18°C 63°F / 17°C 94% 29.98 in
(1015 mb)
SE 4.6 mph
(SE 7 kph)
- 9SM
04:53
Overcast
64°F / 18°C 63°F / 17°C 94% 29.98 in
(1015 mb)
SSE 3.5 mph
(SSE 6 kph)
- 9SM
04:51
Overcast
64°F / 18°C 63°F / 17°C 94% 29.98 in
(1015 mb)
Calm - 9SM
03:53
Partly Cloudy
63°F / 17°C 61°F / 16°C 94% 29.98 in
(1015 mb)
Calm - 8SM
02:53
Partly Cloudy
64°F / 18°C 63°F / 17°C 94% 29.95 in
(1014 mb)
Calm - 9SM
01:53
Clear
66°F / 19°C 63°F / 17°C 88% 29.95 in
(1014 mb)
S 4.6 mph
(S 7 kph)
- 10SM
00:53
Clear
66°F / 19°C 61°F / 16°C 83% 29.95 in
(1014 mb)
S 6.9 mph
(S 11 kph)
- 9SM
Time Weather Temperature Dewpoint Humidity Pressure Winds Precip Visibility


Weather for websites

WeatherForYou.com, LLC is not responsible for any damages or problems caused by this service. Current weather conditions are obtained from the closest station including government and personal stations which may have varying degrees of accuracy. Weather forecasts are derived from the NOAA NDFD. Like all things, this site belongs to Jesus Christ... He just trusts me to maintain it. If you have any questions or comments email webmaster@weatherforyou.com

Copyright © 2015, WeatherForYou.com LLC. All rights reserved.